Flag for Germany Weather past 2 weeks in Lüdenscheid, North Rhine-Westphalia, Germany

Now
45 °F

Passing clouds.


Feels Like: 45 °F
Forecast: 36 / 60 °F
Wind: 1 mph from South

Location: Koeln / Bonn

Current Time: Apr 20, 2015 at 3:02:14 AM

Latest Report: Apr 20, 2015 at 2:00 AM


Visibility: 25 mi

Pressure: 30.25 "Hg

Humidity: 63%

Dew point: 33 °F

Location of LüdenscheidLocation

Historic Weather in Lüdenscheid — Graph

°F

Lüdenscheid temperature yesterday

Maximum temperature yesterday: 63 °F (at 7:00 PM)
Minimum temperature yesterday: 31 °F (at 7:00 AM)
Average temperature yesterday: 49 °F

Past Weeks' High & Low Weather Summary

 TemperatureHumidityPressure
High76 °F (Apr 15, 4:00 PM)100% (Apr 7, 8:00 AM)30.67 "Hg (Apr 7, 8:00 AM)
Low27 °F (Apr 7, 7:00 AM)20% (Apr 10, 6:00 PM)29.90 "Hg (Apr 16, 7:00 PM)
Average50 °F63%30.27 "Hg
* Reported Apr 5 2:00 AM — Apr 20 2:00 AM, Lüdenscheid, Weather by CustomWeather, © 2015

Note: Actual official high and low records may vary slightly from our data, if they occured in-between our weather recording intervals... More about our weather records

Advertising

Lüdenscheid weather history for previous 24 hours

 ConditionsComfort  
Time TempWeatherWind HumidityBarometerVisibility
2:00 AM
Mon, Apr 20
45 °FPassing clouds.1 mph63%30.25 "Hg25 mi
1:00 AM49 °FClear.3 mph55%30.24 "Hg25 mi
12:00 AM52 °FClear.3 mph49%30.22 "Hg25 mi
11:00 PM
Sun, Apr 19
51 °FClear.3 mph52%30.21 "Hg25 mi
10:00 PM55 °FPassing clouds.5 mph45%30.19 "Hg25 mi
9:00 PM57 °FPassing clouds.5 mph46%30.17 "Hg28 mi
8:00 PM62 °FScattered clouds.2 mph27%30.15 "Hg31 mi
7:00 PM63 °FScattered clouds.3 mph25%30.13 "Hg28 mi
6:00 PM62 °FScattered clouds.2 mph28%30.13 "Hg28 mi
5:00 PM62 °FPartly sunny.5 mph31%30.13 "Hg28 mi
4:00 PM61 °FOvercast.2 mph31%30.14 "Hg28 mi
3:00 PM60 °FOvercast.3 mph34%30.15 "Hg28 mi
2:00 PM58 °FOvercast.2 mph34%30.17 "Hg28 mi
1:00 PM55 °FOvercast.1 mph38%30.17 "Hg28 mi
12:00 PM54 °FOvercast.1 mph46%30.18 "Hg25 mi
11:00 AM52 °FOvercast.1 mph48%30.18 "Hg22 mi
10:00 AM46 °FOvercast.1 mph65%30.19 "Hg25 mi
9:00 AM41 °FPartly sunny.1 mph77%30.20 "Hg28 mi
8:00 AM34 °FPartly sunny.1 mph87%30.21 "Hg31 mi
7:00 AM31 °FScattered clouds.1 mph91%30.20 "Hg31 mi
6:00 AM37 °FClear.2 mph76%30.21 "Hg37 mi
5:00 AM34 °FClear.2 mph84%30.22 "Hg37 mi
4:00 AM37 °FClear.2 mph78%30.23 "Hg31 mi
3:00 AM36 °FClear.2 mph82%30.24 "Hg37 mi
Weather by CustomWeather, © 2015

See weather overviewHow to use our weather pages